Weather History for KERI - July, 2013

Change the Weather History Date:

Tuesday, July 2, 2013

  Actual Average Record
Temperature  
Mean Temperature 67 °F 71 °F  
Max Temperature 73 °F 79 °F 94 °F (1963)
Min Temperature 61 °F 63 °F 45 °F (1957)
Degree Days  
Heating Degree Days 0 1  
Month to date heating degree days 0 2  
Since 1 June heating degree days 68 63  
Since 1 July heating degree days 0 2  
Cooling Degree Days 2 6  
Month to date cooling degree days 4 12  
Year to date cooling degree days 207 174  
Since 1 June cooling degree days 122 135  
Growing Degree Days 16 (Base 50)    
Moisture  
Dew Point 61 °F    
Average Humidity 83    
Maximum Humidity 97    
Minimum Humidity 68    
Precipitation  
Precipitation 0.01 in 0.11 in - ()
Month to date precipitation 0.19 0.23  
Year to date precipitation 24.70 19.05  
Snow  
Snow 0.00 in 0.00 in - ()
Month to date snowfall 0.0 0.0  
Since 1 June snowfall 0.0 0.0  
Since 1 July snowfall 0.0 0.0  
Snow Depth 0.00 in    
Sea Level Pressure  
Sea Level Pressure 30.03 in    
Wind  
Wind Speed 8 mph (NE)    
Max Wind Speed 18 mph    
Max Gust Speed 22 mph    
Visibility 10 miles    
Events Rain    
T = Trace of Precipitation, MM = Missing Value Source: NWS Daily Summary

Daily Weather History Graph

Daily Weather History Graph

Search for Another Location

Airport or City:

Trip Planner

Search our weather history database for the weather conditions in past years. The results will help you decide how hot, cold, wet, or windy it might be!

Date:

Astronomy

Jul. 02, 2013 Rise Set
Actual Time 5:49 AM EDT 9:00 PM EDT
Civil Twilight 5:15 AM EDT 9:34 PM EDT
Nautical Twilight 4:30 AM EDT 10:18 PM EDT
Astronomical Twilight 3:37 AM EDT 11:11 PM EDT
Moon 1:54 AM EDT (7/2) 4:10 PM EDT (7/2)
Length of Visible Light 16h 19m
Length of Day
15h 10m
Waning Crescent, 26% of the Moon is Illuminated
Jul 2
Waning Crescent
Jul 8
New
Jul 15
First Quarter
Jul 22
Full
Jul 29
Last Quarter

Hourly Weather History & Observations

Time (EDT) Temp. Dew Point Humidity Pressure Visibility Wind Dir Wind Speed Gust Speed Precip Events Conditions
12:32 AM 64.4 °F 60.8 °F 88% 30.02 in 9.0 mi NE 16.1 mph - N/A   Overcast
12:51 AM 64.0 °F 60.1 °F 87% 30.02 in 10.0 mi ENE 15.0 mph - N/A   Overcast
1:51 AM 63.0 °F 60.1 °F 90% 30.01 in 9.0 mi NE 12.7 mph - 0.00 in Rain Light Rain
2:51 AM 61.0 °F 59.0 °F 93% 29.99 in 7.0 mi NE 13.8 mph - 0.01 in Rain Light Rain
3:09 AM 60.8 °F 59.0 °F 94% 30.00 in 6.0 mi NE 11.5 mph - 0.00 in Rain Light Rain
3:51 AM 61.0 °F 59.0 °F 93% 29.98 in 6.0 mi NE 12.7 mph - 0.00 in   Overcast
4:29 AM 60.8 °F 59.0 °F 94% 30.00 in 10.0 mi NE 10.4 mph - N/A   Overcast
4:51 AM 62.1 °F 59.0 °F 90% 30.00 in 10.0 mi NE 9.2 mph - N/A   Overcast
5:30 AM 62.6 °F 59.0 °F 88% 30.00 in 10.0 mi ENE 10.4 mph - N/A   Overcast
5:51 AM 61.0 °F 59.0 °F 93% 30.00 in 9.0 mi NE 9.2 mph - N/A   Mostly Cloudy
6:12 AM 60.8 °F 59.0 °F 94% 30.01 in 9.0 mi ENE 5.8 mph - N/A   Scattered Clouds
6:20 AM 60.8 °F 59.0 °F 94% 30.01 in 9.0 mi ENE 5.8 mph - N/A   Mostly Cloudy
6:51 AM 62.1 °F 59.0 °F 90% 30.01 in 10.0 mi ENE 8.1 mph - N/A   Overcast
7:51 AM 63.0 °F 60.1 °F 90% 30.03 in 10.0 mi ENE 5.8 mph - N/A   Overcast
8:51 AM 66.0 °F 61.0 °F 84% 30.03 in 10.0 mi ENE 5.8 mph - N/A   Overcast
10:20 AM 68.0 °F 60.8 °F 78% 30.04 in 10.0 mi North 6.9 mph - N/A   Overcast
10:51 AM 66.9 °F 61.0 °F 81% 30.04 in 10.0 mi NNE 6.9 mph - N/A   Overcast
11:27 AM 68.0 °F 60.8 °F 78% 30.05 in 10.0 mi NE 9.2 mph - N/A   Overcast
11:51 AM 66.9 °F 61.0 °F 81% 30.05 in 10.0 mi NE 6.9 mph - N/A   Overcast
12:51 PM 70.0 °F 61.0 °F 73% 30.05 in 10.0 mi NNE 8.1 mph - N/A   Overcast
1:51 PM 70.0 °F 62.1 °F 76% 30.05 in 10.0 mi NNE 9.2 mph - N/A   Overcast
2:00 PM 71.6 °F 62.6 °F 73% 30.06 in 10.0 mi NNE 10.4 mph - N/A   Mostly Cloudy
2:51 PM 72.0 °F 63.0 °F 73% 30.06 in 10.0 mi North 9.2 mph - N/A   Scattered Clouds
3:51 PM 72.0 °F 63.0 °F 73% 30.05 in 10.0 mi NNE 10.4 mph - N/A   Clear
4:51 PM 73.0 °F 63.0 °F 71% 30.04 in 10.0 mi NNE 9.2 mph - N/A   Clear
5:51 PM 72.0 °F 63.0 °F 73% 30.05 in 10.0 mi NE 10.4 mph - N/A   Clear
6:51 PM 73.0 °F 63.0 °F 71% 30.04 in 10.0 mi NE 10.4 mph - N/A   Clear
7:51 PM 71.1 °F 62.1 °F 73% 30.04 in 10.0 mi NE 10.4 mph - N/A   Scattered Clouds
8:51 PM 72.0 °F 63.0 °F 73% 30.06 in 10.0 mi NE 6.9 mph - N/A   Mostly Cloudy
9:51 PM 71.1 °F 63.0 °F 75% 30.06 in 10.0 mi ENE 8.1 mph - N/A   Overcast
10:51 PM 71.1 °F 63.0 °F 75% 30.07 in 10.0 mi ENE 5.8 mph - N/A   Partly Cloudy
11:51 PM 70.0 °F 64.0 °F 81% 30.06 in 10.0 mi East 3.5 mph - N/A   Clear